Home   Weather   Sultanpur   Past weeks

Flag for India Past Weather in Sultanpur, Uttar Pradesh, India — Yesterday and Last 2 Weeks

Now
82 °F

Fog.


Feels Like: 94 °F
Forecast: 80 / 87 °F
Wind: No wind

Location: Lucknow / Amausi

Current Time: Jul 24, 2017 at 4:24:04 am

Latest Report: Jul 24, 2017 at 3:00 am


Visibility: 2 mi

Pressure: 29.47 "Hg

Humidity: 94%

Dew Point: 81 °F

Location of SultanpurLocation

Past Weather in Sultanpur — Graph

°F

Sultanpur Temperature Yesterday

Maximum temperature yesterday: 88 °F (at 9:00 am)
Minimum temperature yesterday: 82 °F (at 1:00 am)
Average temperature yesterday: 85 °F

High & Low Weather Summary for the Past Weeks

 TemperatureHumidityPressure
High99 °F (Jul 16, 1:30 pm)100% (Jul 9, 4:00 am)29.62 "Hg (Jul 9, 4:00 am)
Low77 °F (Jul 10, 9:30 am)60% (Jul 16, 3:00 pm)29.39 "Hg (Jul 20, 3:30 pm)
Average86 °F87%29.52 "Hg
* Reported Jul 9 3:00 am — Jul 24 3:00 am, Sultanpur. Weather by CustomWeather, © 2017

Note: Actual official high and low records may vary slightly from our data, if they occured in-between our weather recording intervals... More about our weather records

Advertising

Sultanpur Weather History for the Previous 24 Hours

Scroll right to see more
 ConditionsComfort  
Time TempWeatherWind HumidityBarometerVisibility
3:00 am
Mon, Jul 24
82 °FFog.No wind94%29.47 "Hg2 mi
2:00 am82 °FFog.No wind94%29.47 "Hg2 mi
1:00 am82 °FFog.No wind94%29.53 "Hg2 mi
12:00 am82 °FFog.No wind94%29.53 "Hg2 mi
11:00 pm
Sun, Jul 23
82 °FFog.No wind94%29.53 "Hg2 mi
10:00 pm82 °FFog.No wind94%29.53 "Hg2 mi
9:00 pm82 °FFog.No wind94%29.47 "Hg2 mi
8:00 pm84 °FFog.No wind94%29.47 "Hg2 mi
7:30 pm84 °FFog.No wind94%29.47 "Hg2 mi
7:00 pm84 °FFog.No wind89%29.47 "Hg2 mi
6:00 pm86 °FDrizzle. Broken clouds.3 mph89%29.45 "Hg2 mi
5:30 pm86 °FFog.3 mph89%29.45 "Hg2 mi
5:00 pm86 °FFog.3 mph89%29.45 "Hg2 mi
4:00 pm88 °FFog.3 mph84%29.45 "Hg2 mi
3:30 pm88 °FFog.5 mph84%29.45 "Hg2 mi
3:00 pm86 °FFog.3 mph94%29.47 "Hg2 mi
2:00 pm86 °FFog.3 mph89%29.47 "Hg2 mi
12:00 pm88 °FLight rain. More clouds than sun.2 mph84%29.53 "Hg2 mi
11:00 am88 °FFog.2 mph89%29.53 "Hg2 mi
10:30 am88 °FFog.2 mph89%29.53 "Hg2 mi
10:00 am88 °FFog.2 mph89%29.53 "Hg2 mi
9:30 am88 °FFog.5 mph89%29.53 "Hg2 mi
9:00 am88 °FFog.5 mph89%29.50 "Hg2 mi
8:00 am86 °FFog.5 mph94%29.50 "Hg1 mi
7:00 am84 °FFog.5 mph94%29.50 "Hg1 mi
6:30 am82 °FFog.5 mph100%29.50 "Hg1 mi
6:00 am82 °FFog.5 mph100%29.47 "Hg1 mi
5:30 am82 °FFog.5 mph100%29.47 "Hg1 mi
5:00 am82 °FFog.5 mph100%29.47 "Hg2 mi
4:00 am82 °FFog.2 mph100%29.47 "Hg2 mi
Weather by CustomWeather, © 2017

See weather overviewHow to use our weather pages